Location: Unspecified
(35.7250°N, 0.0000°E)
Time: 06:42:31
(UTC+00:00)

Vanguard 1 - Pass Details

Date: 03 July 2019
Orbit: 653 x 3830 km, 34.3° (Epoch: 17 July)

Event Time Altitude Azimuth Distance (km) Brightness Sun altitude
Rises 02:23:36 0° 269° (W) 7,970 14.4 -22.7°
Reaches altitude 10° 02:29:14 10° 269° (W) 6,862 14.0 -22.0°
Maximum altitude 02:51:24 85° 185° (S) 2,826 12.2 -19.2°
Drops below altitude 10° 03:04:08 10° 98° (E) 4,264 13.8 -17.5°
Sets 03:06:45 0° 98° (E) 4,941 14.2 -17.1°
